Dover AFB, DE

2:58 PM EST on November 20, 2017 (GMT -0500)
Dover Air Force Base

Weather History for KDOV - November, 2012

Change the Weather History Date:

Saturday, November 3, 2012

  Actual Average Record
Temperature  
Mean Temperature 45 °F -  
Max Temperature 47 °F 66 °F 82 °F (2016)
Min Temperature 43 °F 45 °F 28 °F (1980)
Degree Days  
Heating Degree Days 20    
Moisture  
Dew Point 31 °F    
Average Humidity 56    
Maximum Humidity 63    
Minimum Humidity 52    
Precipitation  
Precipitation 0.00 in - - ()
Sea Level Pressure  
Sea Level Pressure 29.95 in    
Wind  
Wind Speed 12 mph (WNW)    
Max Wind Speed 20 mph    
Max Gust Speed 29 mph    
Visibility 10 miles    
Events      
Averages and records for this station are not official NWS values.
T = Trace of Precipitation, MM = Missing Value Source: NWS Daily Summary

Daily Weather History Graph

Daily Weather History Graph

Search for Another Location

Airport or City:

Trip Planner

Search our weather history database for the weather conditions in past years. The results will help you decide how hot, cold, wet, or windy it might be!

Date:

Astronomy

Nov. 03, 2012 Rise Set
Actual Time 7:32 AM EDT 5:58 PM EDT
Civil Twilight 7:04 AM EDT 6:26 PM EDT
Nautical Twilight 6:32 AM EDT 6:57 PM EDT
Astronomical Twilight 6:01 AM EDT 7:28 PM EDT
Moon 9:37 PM EDT (11/3) 11:33 AM EDT (11/3)
Length of Visible Light 11h 21m
Length of Day
10h 26m
Waning Gibbous, 80% of the Moon is Illuminated
Nov 3
Waning Gibbous
Nov 6
Last Quarter
Nov 13
New
Nov 20
First Quarter
Nov 28
Full

Hourly Weather History & Observations

Time (EDT) Temp. Windchill Dew Point Humidity Pressure Visibility Wind Dir Wind Speed Gust Speed Precip Events Conditions
12:55 AM 45.7 °F 41.0 °F 32.4 °F 60% 29.87 in 10.0 mi West 9.2 mph - N/A   Overcast
1:55 AM 45.5 °F 39.9 °F 32.7 °F 61% 29.87 in 10.0 mi West 11.5 mph - N/A   Overcast
2:55 AM 44.8 °F 39.4 °F 32.5 °F 62% 29.87 in 10.0 mi West 10.4 mph - N/A   Overcast
3:55 AM 45.0 °F 39.7 °F 32.2 °F 61% 29.87 in 10.0 mi West 10.4 mph - N/A   Overcast
4:55 AM 43.5 °F 38.3 °F 31.6 °F 63% 29.88 in 10.0 mi West 9.2 mph - N/A   Mostly Cloudy
5:55 AM 43.5 °F 38.9 °F 31.5 °F 63% 29.91 in 10.0 mi West 8.1 mph - N/A   Overcast
6:55 AM 44.1 °F 37.7 °F 30.2 °F 58% 29.91 in 10.0 mi WNW 12.7 mph - N/A   Overcast
7:55 AM 43.7 °F 37.3 °F 29.5 °F 57% 29.94 in 10.0 mi WNW 12.7 mph - N/A   Overcast
8:55 AM 43.9 °F 36.5 °F 29.3 °F 57% 29.95 in 10.0 mi West 16.1 mph 23.0 mph N/A   Overcast
9:55 AM 44.8 °F 38.3 °F 30.0 °F 56% 29.96 in 10.0 mi WNW 13.8 mph 23.0 mph N/A   Overcast
10:55 AM 46.0 °F 38.5 °F 30.2 °F 54% 29.96 in 10.0 mi WNW 19.6 mph 25.3 mph N/A   Overcast
11:55 AM 46.8 °F - 30.4 °F 53% 29.96 in 10.0 mi NW 16.1 mph 24.2 mph N/A   Overcast
12:55 PM 47.7 °F - 30.6 °F 52% 29.95 in 10.0 mi NW 17.3 mph 24.2 mph N/A   Overcast
1:55 PM 47.7 °F - 30.7 °F 52% 29.94 in 10.0 mi WNW 18.4 mph 25.3 mph N/A   Overcast
2:55 PM 47.5 °F - 30.6 °F 52% 29.95 in 10.0 mi WNW 18.4 mph 28.8 mph N/A   Overcast
3:55 PM 47.5 °F - 30.7 °F 52% 29.96 in 10.0 mi WNW 15.0 mph 25.3 mph N/A   Overcast
4:55 PM 47.5 °F - 31.1 °F 53% 29.96 in 10.0 mi WNW 15.0 mph - N/A   Overcast
5:55 PM 46.6 °F - 30.9 °F 54% 29.97 in 10.0 mi WNW 12.7 mph 21.9 mph N/A   Overcast
6:55 PM 46.6 °F - 30.7 °F 54% 29.98 in 10.0 mi WNW 11.5 mph - N/A   Overcast
7:55 PM 46.6 °F - 31.5 °F 56% 30.00 in 10.0 mi West 9.2 mph - N/A   Overcast
8:55 PM 46.2 °F 42.7 °F 31.3 °F 56% 30.00 in 10.0 mi West 6.9 mph - N/A   Overcast
9:55 PM 46.6 °F - 30.9 °F 54% 30.01 in 10.0 mi West 8.1 mph - N/A   Overcast
10:55 PM 46.2 °F 40.8 °F 31.8 °F 57% 30.02 in 10.0 mi WNW 11.5 mph - N/A   Overcast
11:55 PM 46.0 °F 41.4 °F 31.6 °F 57% 30.02 in 10.0 mi WNW 9.2 mph - N/A   Overcast